Weather History for Bellaire, MI

Change the Weather History Date:

Saturday, October 1, 2011

  Actual Average (KTVC) Record (KTVC)
Temperature  
Mean Temperature 44 °F 54 °F  
Max Temperature 50 °F 64 °F 88 °F (1971)
Min Temperature 37 °F 44 °F 30 °F (1960)
Degree Days  
Heating Degree Days 22 12  
Month to date heating degree days 12  
Since 1 July heating degree days 274  
Cooling Degree Days 0 0  
Month to date cooling degree days 0  
Year to date cooling degree days 407  
Moisture  
Dew Point 32 °F    
Average Humidity 66    
Maximum Humidity 81    
Minimum Humidity 50    
Precipitation  
Precipitation 0.00 in 0.11 in 1.75 in (1994)
Month to date precipitation 0.11  
Year to date precipitation 24.75  
Sea Level Pressure  
Sea Level Pressure 30.25 in    
Wind  
Wind Speed 7 mph (North)    
Max Wind Speed 13 mph    
Max Gust Speed 21 mph    
Visibility 10 miles    
Events      
T = Trace of Precipitation, MM = Missing Value Source: NWS Daily Summary

Daily Weather History Graph

Daily Weather History Graph

Search for Another Location

Airport:

Trip Planner

Search our weather history database for the weather conditions in past years. The results will help you decide how hot, cold, wet, or windy it might be!

Date:

Astronomy

Oct. 01, 2011 Rise Set
Actual Time 7:38 AM EDT 7:21 PM EDT
Civil Twilight 7:09 AM EDT 7:50 PM EDT
Nautical Twilight 6:35 AM EDT 8:24 PM EDT
Astronomical Twilight 6:00 AM EDT 8:59 PM EDT
Moon 12:59 PM EDT (10/1) 10:02 PM EDT (10/1)
Length of Visible Light 12h 41m
Length of Day
11h 43m
Waxing Crescent, 24% of the Moon is Illuminated
Oct 1
Waxing Crescent
Oct 3
First Quarter
Oct 11
Full
Oct 19
Last Quarter
Oct 26
New

Hourly Weather History & Observations

Time (EDT) Temp. Windchill Dew Point Humidity Pressure Visibility Wind Dir Wind Speed Gust Speed Precip Events Conditions
12:11 AM 41.0 °F 35.8 °F 32.0 °F 70% 30.14 in 10.0 mi NNE 8.1 mph - N/A   Clear
12:31 AM 39.2 °F 35.0 °F 32.0 °F 75% 30.15 in 10.0 mi North 5.8 mph - N/A   Clear
12:51 AM 39.2 °F 35.9 °F 32.0 °F 75% 30.15 in 10.0 mi North 4.6 mph - N/A   Mostly Cloudy
1:11 AM 39.2 °F 32.0 °F 32.0 °F 75% 30.16 in 10.0 mi NNE 11.5 mph 16.1 mph N/A   Overcast
1:31 AM 41.0 °F 35.8 °F 32.0 °F 70% 30.16 in 10.0 mi North 8.1 mph - N/A   Overcast
1:51 AM 41.0 °F 34.3 °F 32.0 °F 70% 30.16 in 10.0 mi NNE 11.5 mph 20.7 mph N/A   Overcast
2:11 AM 41.0 °F 34.3 °F 32.0 °F 70% 30.17 in 10.0 mi NNE 11.5 mph 19.6 mph N/A   Overcast
2:31 AM 41.0 °F 35.8 °F 32.0 °F 70% 30.17 in 10.0 mi North 8.1 mph 19.6 mph N/A   Overcast
2:51 AM 41.0 °F 37.1 °F 32.0 °F 70% 30.17 in 10.0 mi NNE 5.8 mph - N/A   Overcast
3:11 AM 41.0 °F 35.2 °F 32.0 °F 70% 30.18 in 10.0 mi NNE 9.2 mph 17.3 mph N/A   Overcast
3:30 AM 41.0 °F 35.2 °F 32.0 °F 70% 30.18 in 10.0 mi NNE 9.2 mph - N/A   Overcast
4:11 AM 41.0 °F 35.2 °F 32.0 °F 70% 30.18 in 10.0 mi North 9.2 mph 16.1 mph N/A   Overcast
4:30 AM 39.2 °F 33.0 °F 32.0 °F 75% 30.19 in 10.0 mi North 9.2 mph - N/A   Overcast
4:51 AM 39.2 °F 32.5 °F 32.0 °F 75% 30.20 in 10.0 mi North 10.4 mph - N/A   Overcast
5:11 AM 39.2 °F 33.0 °F 32.0 °F 75% 30.21 in 10.0 mi NNE 9.2 mph - N/A   Overcast
5:31 AM 39.2 °F 33.6 °F 32.0 °F 75% 30.21 in 10.0 mi NNE 8.1 mph - N/A   Overcast
5:51 AM 39.2 °F 31.6 °F 32.0 °F 75% 30.22 in 10.0 mi North 12.7 mph 18.4 mph N/A   Overcast
6:11 AM 37.4 °F 30.8 °F 30.2 °F 75% 30.23 in 10.0 mi North 9.2 mph - N/A   Overcast
6:31 AM 37.4 °F 31.4 °F 30.2 °F 75% 30.23 in 10.0 mi North 8.1 mph 17.3 mph N/A   Overcast
6:51 AM 37.4 °F 31.4 °F 30.2 °F 75% 30.25 in 10.0 mi NNE 8.1 mph - N/A   Overcast
7:10 AM 37.4 °F 32.8 °F 30.2 °F 75% 30.26 in 10.0 mi North 5.8 mph - N/A   Overcast
7:31 AM 37.4 °F 30.8 °F 30.2 °F 75% 30.26 in 10.0 mi North 9.2 mph 16.1 mph N/A   Overcast
7:51 AM 37.4 °F 32.1 °F 30.2 °F 75% 30.26 in 10.0 mi North 6.9 mph - N/A   Overcast
8:10 AM 37.4 °F 32.8 °F 30.2 °F 75% 30.27 in 10.0 mi North 5.8 mph - N/A   Overcast
8:31 AM 37.4 °F 32.1 °F 30.2 °F 75% 30.28 in 10.0 mi NNE 6.9 mph - N/A   Overcast
8:51 AM 37.4 °F 32.1 °F 32.0 °F 81% 30.29 in 10.0 mi NNE 6.9 mph - N/A   Overcast
9:10 AM 39.2 °F 34.2 °F 32.0 °F 75% 30.30 in 10.0 mi North 6.9 mph - N/A   Overcast
9:31 AM 41.0 °F 35.8 °F 30.2 °F 65% 30.30 in 10.0 mi North 8.1 mph - N/A   Mostly Cloudy
9:50 AM 41.0 °F 35.2 °F 32.0 °F 70% 30.30 in 10.0 mi North 9.2 mph 17.3 mph N/A   Mostly Cloudy
10:11 AM 41.0 °F 35.8 °F 32.0 °F 70% 30.30 in 10.0 mi North 8.1 mph 16.1 mph N/A   Mostly Cloudy
10:31 AM 41.0 °F 36.4 °F 32.0 °F 70% 30.30 in 10.0 mi NNE 6.9 mph - N/A   Mostly Cloudy
10:50 AM 42.8 °F 38.0 °F 32.0 °F 66% 30.31 in 10.0 mi North 8.1 mph - N/A   Scattered Clouds
11:11 AM 42.8 °F 39.3 °F 32.0 °F 66% 30.31 in 10.0 mi NNW 5.8 mph - N/A   Mostly Cloudy
11:31 AM 42.8 °F 38.6 °F 32.0 °F 66% 30.31 in 10.0 mi North 6.9 mph - N/A   Scattered Clouds
11:51 AM 44.6 °F 41.4 °F 32.0 °F 61% 30.31 in 10.0 mi NNW 5.8 mph - N/A   Clear
12:11 PM 44.6 °F 41.4 °F 32.0 °F 61% 30.31 in 10.0 mi NW 5.8 mph - N/A   Clear
12:31 PM 44.6 °F 41.4 °F 32.0 °F 61% 30.31 in 10.0 mi NNW 5.8 mph - N/A   Clear
12:51 PM 46.4 °F 45.2 °F 32.0 °F 57% 30.31 in 10.0 mi North 3.5 mph - N/A   Clear
1:11 PM 46.4 °F 45.2 °F 32.0 °F 57% 30.30 in 10.0 mi West 3.5 mph - N/A   Clear
1:30 PM 46.4 °F 42.9 °F 32.0 °F 57% 30.30 in 10.0 mi WNW 6.9 mph - N/A   Clear
1:51 PM 48.2 °F - 32.0 °F 54% 30.30 in 10.0 mi NNW 3.5 mph - N/A   Clear
2:11 PM 50.0 °F - 32.0 °F 50% 30.29 in 10.0 mi NW 5.8 mph - N/A   Clear
2:30 PM 50.0 °F - 32.0 °F 50% 30.28 in 10.0 mi North 5.8 mph - N/A   Clear
2:51 PM 50.0 °F - 32.0 °F 50% 30.28 in 10.0 mi NNW 6.9 mph - N/A   Clear
3:11 PM 50.0 °F - 32.0 °F 50% 30.28 in 10.0 mi NNW 9.2 mph - N/A   Clear
3:30 PM 50.0 °F - 32.0 °F 50% 30.28 in 10.0 mi North 6.9 mph - N/A   Clear
3:51 PM 50.0 °F - 33.8 °F 54% 30.28 in 10.0 mi NNW 4.6 mph - N/A   Clear
4:11 PM 50.0 °F - 33.8 °F 54% 30.28 in 10.0 mi NNW 4.6 mph - N/A   Clear
4:31 PM 50.0 °F - 33.8 °F 54% 30.27 in 10.0 mi NNW 6.9 mph - N/A   Clear
4:51 PM 50.0 °F - 32.0 °F 50% 30.27 in 10.0 mi North 8.1 mph - N/A   Clear
5:10 PM 50.0 °F - 32.0 °F 50% 30.27 in 10.0 mi North 5.8 mph - N/A   Clear
5:31 PM 50.0 °F - 32.0 °F 50% 30.27 in 10.0 mi North 5.8 mph - N/A   Clear
5:51 PM 48.2 °F - 32.0 °F 54% 30.27 in 10.0 mi NNW 8.1 mph - N/A   Clear
6:10 PM 48.2 °F - 32.0 °F 54% 30.28 in 10.0 mi NNW 4.6 mph - N/A   Clear
6:31 PM 46.4 °F - 32.0 °F 57% 30.27 in 10.0 mi Calm Calm - N/A   Clear
6:51 PM 46.4 °F - 32.0 °F 57% 30.27 in 10.0 mi Calm Calm - N/A   Clear
7:10 PM 42.8 °F - 33.8 °F 70% 30.26 in 10.0 mi Calm Calm - N/A   Clear
7:31 PM 39.2 °F - 33.8 °F 81% 30.26 in 10.0 mi Calm Calm - N/A   Clear
8:10 PM 37.4 °F - 33.8 °F 87% 30.25 in 10.0 mi Calm Calm - N/A   Clear
8:31 PM 35.6 °F - 33.8 °F 93% 30.24 in 10.0 mi Calm Calm - N/A   Clear
8:51 PM 35.6 °F - 33.8 °F 93% 30.25 in 10.0 mi Calm Calm - N/A   Clear
9:11 PM 35.6 °F - 33.8 °F 93% 30.25 in 10.0 mi Calm Calm - N/A   Clear
9:31 PM 33.8 °F - 32.0 °F 93% 30.25 in 10.0 mi Calm Calm - N/A   Clear
9:51 PM 33.8 °F - 32.0 °F 93% 30.25 in 10.0 mi Calm Calm - N/A   Clear
10:11 PM 33.8 °F - 32.0 °F 93% 30.24 in 10.0 mi Calm Calm - N/A   Clear
10:31 PM 33.8 °F - 32.0 °F 93% 30.25 in 10.0 mi Calm Calm - N/A   Clear
10:50 PM 32.0 °F - 32.0 °F 100% 30.25 in 10.0 mi Calm Calm - N/A   Clear
11:11 PM 32.0 °F - 32.0 °F 100% 30.25 in 10.0 mi Calm Calm - N/A   Clear
11:31 PM 32.0 °F - 32.0 °F 100% 30.26 in 10.0 mi Calm Calm - N/A   Clear
11:51 PM 32.0 °F - 32.0 °F 100% 30.26 in 7.0 mi Calm Calm - N/A   Clear